Weather History for Hickory, NC

Change the Weather History Date:

Saturday, August 30, 2014

  Actual Average Record
Temperature  
Mean Temperature 78 °F -  
Max Temperature 88 °F 84 °F 95 °F (1960)
Min Temperature 71 °F 63 °F 46 °F (1986)
Cooling Degree Days 14    
Growing Degree Days 28 (Base 50)    
Moisture  
Dew Point 69 °F    
Average Humidity 81    
Maximum Humidity 97    
Minimum Humidity 51    
Precipitation  
Precipitation 0.00 in - - ()
Sea Level Pressure  
Sea Level Pressure 30.17 in    
Wind  
Wind Speed 3 mph (NE)    
Max Wind Speed 9 mph    
Max Gust Speed -    
Visibility 6 miles    
Events Fog    
Averages and records for this station are not official NWS values.
T = Trace of Precipitation, MM = Missing Value Source: NWS Daily Summary

Daily Weather History Graph

Daily Weather History Graph

Search for Another Location

Airport:

Trip Planner

Search our weather history database for the weather conditions in past years. The results will help you decide how hot, cold, wet, or windy it might be!

Date:

Astronomy

Aug. 30, 2014 Rise Set
Actual Time 6:56 AM EDT 7:55 PM EDT
Civil Twilight 6:29 AM EDT 8:21 PM EDT
Nautical Twilight 5:58 AM EDT 8:52 PM EDT
Astronomical Twilight 5:26 AM EDT 9:24 PM EDT
Moon 11:31 AM EDT 10:40 PM EDT
Length of Visible Light 13h 52m
Length of Day
12h 59m
Waxing Crescent, 23% of the Moon is Illuminated
Aug 30
Waxing Crescent
Sep 2
First Quarter
Sep 8
Full
Sep 15
Last Quarter
Sep 24
New

Hourly Weather History & Observations

Time (EDT) Temp. Heat Index Dew Point Humidity Pressure Visibility Wind Dir Wind Speed Gust Speed Precip Events Conditions
12:36 AM 73.9 °F - 70.0 °F 87% 30.20 in 8.0 mi NE 3.5 mph - N/A   Overcast
12:53 AM 73.9 °F - 70.0 °F 87% 30.13 in 7.0 mi NE 3.5 mph - N/A   Overcast
1:53 AM 73.9 °F - 70.0 °F 87% 30.13 in 8.0 mi NE 3.5 mph - N/A   Overcast
2:05 AM 73.9 °F - 70.0 °F 87% 30.20 in 8.0 mi NE 3.5 mph - N/A   Overcast
2:25 AM 73.9 °F - 70.0 °F 87% 30.20 in 8.0 mi Calm Calm - N/A   Overcast
2:53 AM 73.9 °F - 70.0 °F 87% 30.14 in 8.0 mi Calm Calm - N/A   Overcast
3:21 AM 73.0 °F - 70.0 °F 90% 30.19 in 7.0 mi Calm Calm - N/A   Overcast
4:18 AM 72.0 °F - 70.0 °F 93% 30.19 in 6.0 mi Calm Calm - N/A   Mostly Cloudy
4:37 AM 71.1 °F - 69.1 °F 93% 30.19 in 5.0 mi Calm Calm - N/A   Scattered Clouds
4:53 AM 71.1 °F - 69.1 °F 93% 30.13 in 5.0 mi NE 3.5 mph - N/A   Clear
5:40 AM 71.1 °F - 69.1 °F 93% 30.21 in 4.0 mi Calm Calm - N/A   Scattered Clouds
5:53 AM 71.1 °F - 69.1 °F 93% 30.14 in 4.0 mi East 3.5 mph - N/A   Mostly Cloudy
6:53 AM 71.1 °F - 69.1 °F 93% 30.15 in 4.0 mi Calm Calm - N/A   Mostly Cloudy
7:32 AM 71.1 °F - 69.1 °F 93% 30.22 in 2.0 mi NE 3.5 mph - N/A   Clear
7:40 AM 71.1 °F - 69.1 °F 93% 30.22 in 1.8 mi Calm Calm - N/A   Clear
7:50 AM 71.6 °F - 69.8 °F 94% 30.22 in 2.0 mi NE 4.6 mph - N/A   Clear
7:53 AM 72.0 °F - 70.0 °F 93% 30.16 in 2.0 mi NE 3.5 mph - N/A   Clear
8:04 AM 72.0 °F - 70.0 °F 93% 30.23 in 2.0 mi Calm Calm - N/A   Scattered Clouds
8:12 AM 72.0 °F - 70.0 °F 93% 30.23 in 2.0 mi NNE 3.5 mph - N/A   Mostly Cloudy
8:20 AM 72.0 °F - 70.0 °F 93% 30.23 in 1.5 mi Variable 3.5 mph - N/A   Mostly Cloudy
8:32 AM 72.0 °F - 70.0 °F 93% 30.23 in 0.5 mi NE 4.6 mph - N/A Fog Fog
8:42 AM 72.0 °F - 71.1 °F 97% 30.23 in 0.2 mi ENE 3.5 mph - N/A Fog Fog
8:53 AM 72.0 °F - 71.1 °F 97% 30.16 in 0.8 mi East 3.5 mph - N/A   Overcast
9:02 AM 73.0 °F - 71.1 °F 93% 30.23 in 1.8 mi NE 3.5 mph - N/A   Overcast
9:09 AM 75.0 °F - 71.1 °F 87% 30.23 in 2.5 mi NE 3.5 mph - N/A   Overcast
9:16 AM 75.0 °F - 71.1 °F 87% 30.23 in 4.0 mi NE 3.5 mph - N/A   Overcast
9:42 AM 77.0 °F - 71.1 °F 82% 30.23 in 6.0 mi NNE 4.6 mph - N/A   Haze
9:53 AM 75.0 °F - 71.1 °F 87% 30.17 in 6.0 mi NNE 5.8 mph - N/A   Overcast
10:26 AM 77.0 °F - 70.0 °F 79% 30.24 in 7.0 mi NE 4.6 mph - N/A   Scattered Clouds
10:38 AM 75.9 °F - 70.0 °F 82% 30.24 in 7.0 mi NNE 4.6 mph - N/A   Mostly Cloudy
10:48 AM 77.0 °F - 69.8 °F 78% 30.24 in 8.0 mi Variable 3.5 mph - N/A   Scattered Clouds
10:53 AM 78.1 °F - 71.1 °F 79% 30.17 in 8.0 mi Calm Calm - N/A   Mostly Cloudy
11:09 AM 79.0 °F - 71.1 °F 77% 30.23 in 8.0 mi NNE 3.5 mph - N/A   Mostly Cloudy
11:27 AM 79.0 °F - 71.1 °F 77% 30.23 in 9.0 mi Calm Calm - N/A   Scattered Clouds
11:53 AM 81.0 °F 84.9 °F 71.1 °F 72% 30.16 in 10.0 mi Variable 4.6 mph - N/A   Scattered Clouds
12:03 PM 81.0 °F 84.9 °F 71.1 °F 72% 30.22 in 10.0 mi NNE 4.6 mph - N/A   Mostly Cloudy
12:15 PM 81.0 °F 84.4 °F 70.0 °F 69% 30.22 in 10.0 mi North 4.6 mph - N/A   Mostly Cloudy
12:53 PM 84.9 °F 88.8 °F 69.1 °F 59% 30.14 in 10.0 mi Variable 4.6 mph - N/A   Scattered Clouds
1:53 PM 84.9 °F 87.6 °F 66.9 °F 55% 30.13 in 10.0 mi South 5.8 mph - N/A   Partly Cloudy
2:53 PM 84.0 °F 87.0 °F 68.0 °F 58% 30.11 in 10.0 mi Variable 5.8 mph - N/A   Partly Cloudy
3:53 PM 86.0 °F 89.4 °F 68.0 °F 55% 30.08 in 10.0 mi SSW 9.2 mph - N/A   Clear
4:53 PM 86.0 °F 88.2 °F 66.0 °F 51% 30.07 in 10.0 mi Variable 4.6 mph - N/A   Partly Cloudy
5:53 PM 84.9 °F 87.6 °F 66.9 °F 55% 30.06 in 10.0 mi Variable 5.8 mph - N/A   Clear
6:53 PM 84.0 °F 85.8 °F 64.9 °F 53% 30.06 in 10.0 mi Variable 3.5 mph - N/A   Clear
7:53 PM 81.0 °F 83.0 °F 66.0 °F 60% 30.07 in 10.0 mi Calm Calm - N/A   Clear
8:53 PM 78.1 °F - 66.9 °F 68% 30.09 in 10.0 mi Calm Calm - N/A   Clear
9:53 PM 75.9 °F - 68.0 °F 76% 30.11 in 10.0 mi Calm Calm - N/A   Clear
11:53 PM 73.0 °F - 68.0 °F 84% 30.10 in 10.0 mi Calm Calm - N/A   Clear